Location: Pacheco
(37.9835°N, 122.0752°W)
Time: 11:05:09
(UTC+00:00)

KORONAS-FOTON - Pass Details

Date: 13 April 2024
Orbit: 478 x 498 km, 82.4° (Epoch: 23 May)

Event Time Altitude Azimuth Distance (km) Brightness Sun altitude
Rises 12:53:14 0° 188° (S) 2,553 7.1 -8.7°
Reaches altitude 10° 12:55:20 10° 189° (S) 1,672 6.1 -8.3°
Maximum altitude 12:58:59 81° 276° (W) 498 3.6 -7.6°
Drops below altitude 10° 13:02:39 10° 5° (N) 1,672 6.7 -7.0°
Sets 13:04:45 0° 7° (N) 2,553 7.7 -6.6°
